Location: York
(31.8935°S, 116.7682°E)
Time: 06:22:25
(UTC+08:00)

Envisat - Pass Details

Date: 10 December 2021
Orbit: 764 x 766 km, 98.2° (Epoch: 16 January)

Event Time Altitude Azimuth Distance (km) Brightness Sun altitude
Rises 03:30:18 0° 46° (NE) 3,222 6.3 -16.5°
Reaches altitude 10° 03:33:00 10° 60° (ENE) 2,304 5.7 -16.1°
Maximum altitude 03:36:57 23° 111° (ESE) 1,584 5.5 -15.5°
Drops below altitude 10° 03:40:56 10° 162° (SSE) 2,327 6.4 -14.8°
Sets 03:43:40 0° 176° (S) 3,261 6.9 -14.4°
